Time,TemperatureF,DewpointF,PressureIn,WindDirection,WindDirectionDegrees,WindSpeedMPH,WindSpeedGustMPH,Humidity,HourlyPrecipIn,Conditions,Clouds,dailyrainin,SoftwareType,DateUTC
2013-03-20 00:00:00,17.6,6.9,30.01,WSW,248,7.8,10.3,62,0.00,,,0.00,WUHU216HW,2013-03-20 05:00:00,
2013-03-20 00:05:00,17.6,6.5,30.01,West,270,5.4,12.3,61,0.00,,,0.00,WUHU216HW,2013-03-20 05:05:00,
2013-03-20 00:10:00,17.3,6.1,30.01,West,270,7.4,12.3,61,0.00,,,0.00,WUHU216HW,2013-03-20 05:10:00,
2013-03-20 00:15:00,16.9,6.1,30.01,West,270,5.4,9.8,62,0.00,,,0.00,WUHU216HW,2013-03-20 05:15:00,
2013-03-20 00:20:00,16.9,5.8,30.01,WNW,293,9.8,14.3,61,0.00,,,0.00,WUHU216HW,2013-03-20 05:20:00,
2013-03-20 00:25:00,16.9,5.8,30.01,WSW,248,7.6,14.3,61,0.00,,,0.00,WUHU216HW,2013-03-20 05:25:00,
2013-03-20 00:30:00,16.6,5.4,30.00,WNW,293,5.8,10.3,61,0.00,,,0.00,WUHU216HW,2013-03-20 05:30:00,
2013-03-20 00:35:00,16.6,5.8,30.00,WNW,293,6.9,11.4,62,0.00,,,0.00,WUHU216HW,2013-03-20 05:35:00,
2013-03-20 00:40:00,16.4,5.6,30.01,WNW,293,8.9,11.4,62,0.00,,,0.00,WUHU216HW,2013-03-20 05:40:00,
2013-03-20 00:45:00,16.2,5.7,30.01,WNW,293,7.6,10.7,63,0.00,,,0.00,WUHU216HW,2013-03-20 05:45:00,
2013-03-20 00:50:00,16.2,5.7,30.01,NNW,338,8.9,10.5,63,0.00,,,0.00,WUHU216HW,2013-03-20 05:50:00,
2013-03-20 00:55:00,16.0,5.5,30.01,West,270,7.6,10.5,63,0.00,,,0.00,WUHU216HW,2013-03-20 05:55:00,
2013-03-20 01:00:00,15.8,5.3,30.01,West,270,7.8,10.7,63,0.00,,,0.00,WUHU216HW,2013-03-20 06:00:00,
2013-03-20 01:05:00,15.7,5.2,30.01,West,270,8.1,10.7,63,0.00,,,0.00,WUHU216HW,2013-03-20 06:05:00,
2013-03-20 01:10:00,15.5,5.1,30.01,WNW,293,8.9,12.1,63,0.00,,,0.00,WUHU216HW,2013-03-20 06:10:00,
2013-03-20 01:15:00,15.5,5.1,30.01,NW,315,10.1,12.1,63,0.00,,,0.00,WUHU216HW,2013-03-20 06:15:00,
2013-03-20 01:20:00,15.5,5.1,30.01,NW,315,7.8,12.3,63,0.00,,,0.00,WUHU216HW,2013-03-20 06:20:00,
2013-03-20 01:25:00,15.3,4.9,30.01,NW,315,8.7,12.3,63,0.00,,,0.00,WUHU216HW,2013-03-20 06:25:00,
2013-03-20 01:30:00,15.1,5.0,30.01,West,270,6.0,11.4,64,0.00,,,0.00,WUHU216HW,2013-03-20 06:30:00,
2013-03-20 01:35:00,14.8,5.0,30.01,WNW,293,7.6,9.4,65,0.00,,,0.00,WUHU216HW,2013-03-20 06:35:00,
2013-03-20 01:40:00,14.8,5.0,30.01,WNW,293,6.3,9.4,65,0.00,,,0.00,WUHU216HW,2013-03-20 06:40:00,
2013-03-20 01:45:00,14.8,5.0,30.01,WNW,293,6.0,10.5,65,0.00,,,0.00,WUHU216HW,2013-03-20 06:45:00,
2013-03-20 01:50:00,14.4,4.8,30.01,WNW,293,7.2,10.5,65,0.00,,,0.00,WUHU216HW,2013-03-20 06:50:00,
2013-03-20 01:55:00,14.2,4.6,30.01,WNW,293,6.9,12.3,65,0.00,,,0.00,WUHU216HW,2013-03-20 06:55:00,
2013-03-20 02:00:00,14.2,4.6,30.01,WNW,293,4.3,12.3,65,0.00,,,0.00,WUHU216HW,2013-03-20 07:00:00,
2013-03-20 02:05:00,14.0,4.4,30.01,NW,315,6.3,9.4,65,0.00,,,0.00,WUHU216HW,2013-03-20 07:05:00,
2013-03-20 02:10:00,13.9,4.2,30.01,NW,315,7.6,9.2,65,0.00,,,0.00,WUHU216HW,2013-03-20 07:10:00,
2013-03-20 02:15:00,13.7,4.1,30.01,WNW,293,6.5,12.1,65,0.00,,,0.00,WUHU216HW,2013-03-20 07:15:00,
2013-03-20 02:20:00,13.7,4.1,30.01,WNW,293,6.0,12.1,65,0.00,,,0.00,WUHU216HW,2013-03-20 07:20:00,
2013-03-20 02:25:00,13.5,3.9,30.01,NW,315,5.1,9.8,65,0.00,,,0.00,WUHU216HW,2013-03-20 07:25:00,
2013-03-20 02:30:00,13.3,3.7,30.01,NW,315,6.9,11.0,65,0.00,,,0.00,WUHU216HW,2013-03-20 07:30:00,
2013-03-20 02:35:00,13.3,3.7,30.01,West,270,3.8,11.0,65,0.00,,,0.00,WUHU216HW,2013-03-20 07:35:00,
2013-03-20 02:40:00,13.1,3.5,30.01,WNW,293,11.4,11.4,65,0.00,,,0.00,WUHU216HW,2013-03-20 07:40:00,
2013-03-20 02:45:00,13.0,3.3,30.01,WNW,293,10.1,11.4,65,0.00,,,0.00,WUHU216HW,2013-03-20 07:45:00,
2013-03-20 02:50:00,13.0,3.3,30.01,NW,315,8.1,11.4,65,0.00,,,0.00,WUHU216HW,2013-03-20 07:50:00,
2013-03-20 02:55:00,12.8,3.2,30.01,WNW,293,6.3,10.1,65,0.00,,,0.00,WUHU216HW,2013-03-20 07:55:00,
2013-03-20 03:00:00,12.6,3.0,30.01,NW,315,6.7,11.0,65,0.00,,,0.00,WUHU216HW,2013-03-20 08:00:00,
2013-03-20 03:05:00,12.6,3.0,30.01,NW,315,4.7,11.0,65,0.00,,,0.00,WUHU216HW,2013-03-20 08:05:00,
2013-03-20 03:10:00,12.6,3.0,30.01,WNW,293,7.4,10.5,65,0.00,,,0.00,WUHU216HW,2013-03-20 08:10:00,
2013-03-20 03:15:00,12.2,3.0,30.01,NW,315,5.8,10.5,66,0.00,,,0.00,WUHU216HW,2013-03-20 08:15:00,
2013-03-20 03:20:00,12.1,2.8,30.01,WSW,248,4.5,11.2,66,0.00,,,0.00,WUHU216HW,2013-03-20 08:20:00,
2013-03-20 03:25:00,12.1,2.8,30.01,West,270,5.4,11.4,66,0.00,,,0.00,WUHU216HW,2013-03-20 08:25:00,
2013-03-20 03:30:00,11.9,2.3,30.01,NW,315,9.2,11.4,65,0.00,,,0.00,WUHU216HW,2013-03-20 08:30:00,
2013-03-20 03:35:00,11.9,2.3,30.01,NW,315,3.6,11.4,65,0.00,,,0.00,WUHU216HW,2013-03-20 08:35:00,
2013-03-20 03:40:00,11.7,2.1,30.01,NW,315,11.9,11.9,65,0.00,,,0.00,WUHU216HW,2013-03-20 08:40:00,
2013-03-20 03:45:00,11.7,2.1,30.01,NNW,338,8.5,11.9,65,0.00,,,0.00,WUHU216HW,2013-03-20 08:45:00,
2013-03-20 03:50:00,11.5,1.9,30.01,NW,315,5.4,11.9,65,0.00,,,0.00,WUHU216HW,2013-03-20 08:50:00,
2013-03-20 03:55:00,11.5,1.9,30.01,NW,315,9.6,11.0,65,0.00,,,0.00,WUHU216HW,2013-03-20 08:55:00,
2013-03-20 04:00:00,11.5,1.6,30.01,NW,315,8.3,10.5,64,0.00,,,0.00,WUHU216HW,2013-03-20 09:00:00,
2013-03-20 04:05:00,11.3,1.5,30.01,WNW,293,6.9,11.4,64,0.00,,,0.00,WUHU216HW,2013-03-20 09:05:00,
2013-03-20 04:10:00,11.2,1.3,30.01,WNW,293,7.6,11.4,64,0.00,,,0.00,WUHU216HW,2013-03-20 09:10:00,
2013-03-20 04:15:00,11.2,1.6,30.01,NW,315,8.1,9.4,65,0.00,,,0.00,WUHU216HW,2013-03-20 09:15:00,
2013-03-20 04:20:00,11.0,1.5,30.01,NW,315,7.6,9.4,65,0.00,,,0.00,WUHU216HW,2013-03-20 09:20:00,
2013-03-20 04:25:00,11.0,1.5,30.01,WNW,293,6.9,10.5,65,0.00,,,0.00,WUHU216HW,2013-03-20 09:25:00,
2013-03-20 04:30:00,10.8,1.3,30.01,WNW,293,6.3,11.6,65,0.00,,,0.00,WUHU216HW,2013-03-20 09:30:00,
2013-03-20 04:35:00,10.6,1.1,30.01,North,0,7.6,11.6,65,0.00,,,0.00,WUHU216HW,2013-03-20 09:35:00,
2013-03-20 04:40:00,10.4,0.9,30.01,NW,315,8.5,11.4,65,0.00,,,0.00,WUHU216HW,2013-03-20 09:40:00,
2013-03-20 04:45:00,10.4,0.9,30.01,WNW,293,4.7,11.4,65,0.00,,,0.00,WUHU216HW,2013-03-20 09:45:00,
2013-03-20 04:50:00,10.4,0.9,30.01,NW,315,6.7,10.3,65,0.00,,,0.00,WUHU216HW,2013-03-20 09:50:00,
2013-03-20 04:55:00,10.3,0.7,30.01,WNW,293,6.9,10.3,65,0.00,,,0.00,WUHU216HW,2013-03-20 09:55:00,
2013-03-20 05:00:00,10.3,0.7,30.01,West,270,11.2,12.5,65,0.00,,,0.00,WUHU216HW,2013-03-20 10:00:00,
2013-03-20 05:05:00,10.3,0.4,30.01,WNW,293,7.6,12.5,64,0.00,,,0.00,WUHU216HW,2013-03-20 10:05:00,
2013-03-20 05:10:00,10.1,0.5,30.01,WNW,293,6.7,11.2,65,0.00,,,0.00,WUHU216HW,2013-03-20 10:10:00,
2013-03-20 05:15:00,10.1,0.3,30.01,NW,315,8.1,11.2,64,0.00,,,0.00,WUHU216HW,2013-03-20 10:15:00,
2013-03-20 05:20:00,9.9,0.4,30.01,NW,315,6.9,9.4,65,0.00,,,0.00,WUHU216HW,2013-03-20 10:20:00,
2013-03-20 05:25:00,9.9,0.4,30.01,WNW,293,12.1,12.8,65,0.00,,,0.00,WUHU216HW,2013-03-20 10:25:00,
2013-03-20 05:30:00,9.7,0.2,30.01,NW,315,6.9,12.8,65,0.00,,,0.00,WUHU216HW,2013-03-20 10:30:00,
2013-03-20 05:35:00,9.7,0.2,30.01,NW,315,5.6,10.5,65,0.00,,,0.00,WUHU216HW,2013-03-20 10:35:00,
2013-03-20 05:40:00,9.5,0.1,30.01,NW,315,6.3,9.6,65,0.00,,,0.00,WUHU216HW,2013-03-20 10:40:00,
2013-03-20 05:45:00,9.5,0.1,30.01,NW,315,7.6,10.7,65,0.00,,,0.00,WUHU216HW,2013-03-20 10:45:00,
2013-03-20 05:50:00,9.5,0.1,30.01,NW,315,8.9,14.3,65,0.00,,,0.00,WUHU216HW,2013-03-20 10:50:00,
2013-03-20 05:55:00,9.4,-0.1,30.01,NW,315,8.1,14.3,65,0.00,,,0.00,WUHU216HW,2013-03-20 10:55:00,
2013-03-20 06:00:00,9.4,-0.1,30.01,NW,315,8.5,11.2,65,0.00,,,0.00,WUHU216HW,2013-03-20 11:00:00,
2013-03-20 06:05:00,9.2,-0.3,30.01,NW,315,6.7,11.4,65,0.00,,,0.00,WUHU216HW,2013-03-20 11:05:00,
2013-03-20 06:10:00,9.2,-0.6,30.01,WNW,293,7.6,11.4,64,0.00,,,0.00,WUHU216HW,2013-03-20 11:10:00,
2013-03-20 06:15:00,9.0,-0.8,30.01,WNW,293,7.6,13.0,64,0.00,,,0.00,WUHU216HW,2013-03-20 11:15:00,
2013-03-20 06:20:00,9.0,-0.4,30.02,WNW,293,11.4,13.0,65,0.00,,,0.00,WUHU216HW,2013-03-20 11:20:00,
2013-03-20 06:25:00,8.8,-0.6,30.02,WNW,293,6.7,12.8,65,0.00,,,0.00,WUHU216HW,2013-03-20 11:25:00,
2013-03-20 06:30:00,8.6,-0.8,30.02,NW,315,6.3,12.8,65,0.00,,,0.00,WUHU216HW,2013-03-20 11:30:00,
2013-03-20 06:35:00,8.6,-0.8,30.02,WNW,293,7.4,12.1,65,0.00,,,0.00,WUHU216HW,2013-03-20 11:35:00,
2013-03-20 06:40:00,8.6,-0.8,30.02,NW,315,5.1,10.1,65,0.00,,,0.00,WUHU216HW,2013-03-20 11:40:00,
2013-03-20 06:45:00,8.5,-1.0,30.03,WSW,248,6.7,10.1,65,0.00,,,0.00,WUHU216HW,2013-03-20 11:45:00,
2013-03-20 06:50:00,8.5,-1.0,30.03,WNW,293,9.4,9.8,65,0.00,,,0.00,WUHU216HW,2013-03-20 11:50:00,
2013-03-20 06:55:00,8.3,-1.2,30.03,NW,315,6.9,10.1,65,0.00,,,0.00,WUHU216HW,2013-03-20 11:55:00,
2013-03-20 07:00:00,8.3,-0.8,30.03,NW,315,6.0,10.1,66,0.00,,,0.00,WUHU216HW,2013-03-20 12:00:00,
2013-03-20 07:05:00,8.3,-1.2,30.03,West,270,4.3,9.8,65,0.00,,,0.00,WUHU216HW,2013-03-20 12:05:00,
2013-03-20 07:10:00,8.3,-1.2,30.03,WNW,293,6.9,11.0,65,0.00,,,0.00,WUHU216HW,2013-03-20 12:10:00,
2013-03-20 07:15:00,8.3,-1.2,30.04,West,270,6.0,11.0,65,0.00,,,0.00,WUHU216HW,2013-03-20 12:15:00,
2013-03-20 07:20:00,8.3,-1.2,30.04,WNW,293,5.6,9.6,65,0.00,,,0.00,WUHU216HW,2013-03-20 12:20:00,
2013-03-20 07:25:00,8.3,-1.5,30.04,WNW,293,4.7,9.6,64,0.00,,,0.00,WUHU216HW,2013-03-20 12:25:00,
2013-03-20 07:30:00,8.3,-1.5,30.04,WNW,293,6.0,10.7,64,0.00,,,0.00,WUHU216HW,2013-03-20 12:30:00,
2013-03-20 07:35:00,8.3,-1.5,30.04,WNW,293,6.0,10.7,64,0.00,,,0.00,WUHU216HW,2013-03-20 12:35:00,
2013-03-20 07:40:00,8.5,-1.3,30.04,NW,315,7.6,10.1,64,0.00,,,0.00,WUHU216HW,2013-03-20 12:40:00,
2013-03-20 07:45:00,8.6,-1.2,30.04,NNW,338,3.4,8.9,64,0.00,,,0.00,WUHU216HW,2013-03-20 12:45:00,
2013-03-20 07:50:00,8.5,-1.3,30.04,WNW,293,7.8,7.8,64,0.00,,,0.00,WUHU216HW,2013-03-20 12:50:00,
2013-03-20 07:55:00,8.6,-1.2,30.04,WNW,293,6.3,9.2,64,0.00,,,0.00,WUHU216HW,2013-03-20 12:55:00,
2013-03-20 08:00:00,8.6,-1.2,30.04,NW,315,5.1,9.2,64,0.00,,,0.00,WUHU216HW,2013-03-20 13:00:00,
2013-03-20 08:05:00,8.8,-1.0,30.04,WNW,293,4.5,8.7,64,0.00,,,0.00,WUHU216HW,2013-03-20 13:05:00,
2013-03-20 08:10:00,8.8,-1.0,30.04,NW,315,6.9,8.1,64,0.00,,,0.00,WUHU216HW,2013-03-20 13:10:00,
2013-03-20 08:15:00,9.0,-1.2,30.04,WNW,293,6.7,11.0,63,0.00,,,0.00,WUHU216HW,2013-03-20 13:15:00,
2013-03-20 08:20:00,9.0,-1.2,30.04,West,270,8.3,11.0,63,0.00,,,0.00,WUHU216HW,2013-03-20 13:20:00,
2013-03-20 08:25:00,9.0,-1.2,30.04,NW,315,8.1,10.1,63,0.00,,,0.00,WUHU216HW,2013-03-20 13:25:00,
2013-03-20 08:30:00,9.2,-1.0,30.04,WNW,293,8.9,10.5,63,0.00,,,0.00,WUHU216HW,2013-03-20 13:30:00,
2013-03-20 08:35:00,9.2,-1.3,30.04,NW,315,8.9,11.9,62,0.00,,,0.00,WUHU216HW,2013-03-20 13:35:00,
2013-03-20 08:40:00,9.2,-1.3,30.03,NNW,338,11.9,11.9,62,0.00,,,0.00,WUHU216HW,2013-03-20 13:40:00,
2013-03-20 08:45:00,9.4,-0.8,30.03,WNW,293,6.9,11.9,63,0.00,,,0.00,WUHU216HW,2013-03-20 13:45:00,
2013-03-20 08:50:00,9.5,-1.0,30.03,NW,315,13.2,13.2,62,0.00,,,0.00,WUHU216HW,2013-03-20 13:50:00,
2013-03-20 08:55:00,9.7,-0.4,30.03,WNW,293,7.4,13.2,63,0.00,,,0.00,WUHU216HW,2013-03-20 13:55:00,
2013-03-20 09:00:00,9.7,-0.8,30.03,WNW,293,8.5,13.2,62,0.00,,,0.00,WUHU216HW,2013-03-20 14:00:00,
2013-03-20 09:05:00,9.7,-0.8,30.03,West,270,8.3,13.0,62,0.00,,,0.00,WUHU216HW,2013-03-20 14:05:00,
2013-03-20 09:10:00,9.9,-0.6,30.03,WNW,293,7.2,11.6,62,0.00,,,0.00,WUHU216HW,2013-03-20 14:10:00,
2013-03-20 09:15:00,10.1,-0.4,30.03,WNW,293,11.0,11.6,62,0.00,,,0.00,WUHU216HW,2013-03-20 14:15:00,
2013-03-20 09:20:00,10.1,-0.4,30.03,NW,315,6.0,12.1,62,0.00,,,0.00,WUHU216HW,2013-03-20 14:20:00,
2013-03-20 09:25:00,10.3,-0.3,30.03,WNW,293,7.6,12.1,62,0.00,,,0.00,WUHU216HW,2013-03-20 14:25:00,
2013-03-20 09:30:00,10.6,0.1,30.03,NW,315,6.9,12.1,62,0.00,,,0.00,WUHU216HW,2013-03-20 14:30:00,
2013-03-20 09:35:00,11.0,0.7,30.03,NW,315,6.0,12.1,63,0.00,,,0.00,WUHU216HW,2013-03-20 14:35:00,
2013-03-20 09:40:00,11.0,0.1,30.03,WSW,248,8.1,11.6,61,0.00,,,0.00,WUHU216HW,2013-03-20 14:40:00,
2013-03-20 09:45:00,11.3,0.5,30.03,West,270,7.2,11.6,61,0.00,,,0.00,WUHU216HW,2013-03-20 14:45:00,
2013-03-20 09:50:00,11.2,0.3,30.03,West,270,5.8,13.2,61,0.00,,,0.00,WUHU216HW,2013-03-20 14:50:00,
2013-03-20 09:55:00,11.3,0.5,30.03,WNW,293,9.4,13.2,61,0.00,,,0.00,WUHU216HW,2013-03-20 14:55:00,
2013-03-20 10:00:00,11.9,1.3,30.03,WSW,248,4.0,13.4,62,0.00,,,0.00,WUHU216HW,2013-03-20 15:00:00,
2013-03-20 10:05:00,12.2,0.9,30.03,West,270,9.2,13.4,60,0.00,,,0.00,WUHU216HW,2013-03-20 15:05:00,
2013-03-20 10:10:00,11.9,0.9,30.03,WNW,293,7.6,13.0,61,0.00,,,0.00,WUHU216HW,2013-03-20 15:10:00,
2013-03-20 10:15:00,12.2,1.3,30.03,WSW,248,7.6,13.0,61,0.00,,,0.00,WUHU216HW,2013-03-20 15:15:00,
2013-03-20 10:20:00,12.4,1.1,30.03,West,270,5.8,11.9,60,0.00,,,0.00,WUHU216HW,2013-03-20 15:20:00,
2013-03-20 10:25:00,12.8,1.8,30.03,NW,315,4.9,11.9,61,0.00,,,0.00,WUHU216HW,2013-03-20 15:25:00,
2013-03-20 10:30:00,12.8,1.4,30.03,NW,315,4.9,10.5,60,0.00,,,0.00,WUHU216HW,2013-03-20 15:30:00,
2013-03-20 10:35:00,12.8,1.4,30.03,NW,315,6.3,13.4,60,0.00,,,0.00,WUHU216HW,2013-03-20 15:35:00,
2013-03-20 10:40:00,13.0,1.6,30.03,NW,315,8.7,13.4,60,0.00,,,0.00,WUHU216HW,2013-03-20 15:40:00,
2013-03-20 10:45:00,13.1,2.2,30.03,WNW,293,9.4,12.5,61,0.00,,,0.00,WUHU216HW,2013-03-20 15:45:00,
2013-03-20 10:50:00,13.5,2.5,30.03,WSW,248,5.6,11.2,61,0.00,,,0.00,WUHU216HW,2013-03-20 15:50:00,
2013-03-20 10:55:00,14.0,2.7,30.03,WNW,293,6.9,11.2,60,0.00,,,0.00,WUHU216HW,2013-03-20 15:55:00,
2013-03-20 11:00:00,14.2,2.9,30.03,WNW,293,7.2,10.7,60,0.00,,,0.00,WUHU216HW,2013-03-20 16:00:00,
2013-03-20 11:05:00,14.6,3.2,30.03,NW,315,11.6,11.6,60,0.00,,,0.00,WUHU216HW,2013-03-20 16:05:00,
2013-03-20 11:10:00,14.8,3.3,30.03,NW,315,7.4,11.6,60,0.00,,,0.00,WUHU216HW,2013-03-20 16:10:00,
2013-03-20 11:15:00,15.3,3.9,30.02,NW,315,7.8,11.6,60,0.00,,,0.00,WUHU216HW,2013-03-20 16:15:00,
2013-03-20 11:20:00,14.8,3.3,30.03,West,270,8.1,11.0,60,0.00,,,0.00,WUHU216HW,2013-03-20 16:20:00,
2013-03-20 11:25:00,14.8,3.3,30.03,West,270,8.1,12.5,60,0.00,,,0.00,WUHU216HW,2013-03-20 16:25:00,
2013-03-20 11:30:00,14.8,3.0,30.02,WNW,293,8.3,13.9,59,0.00,,,0.00,WUHU216HW,2013-03-20 16:30:00,
2013-03-20 11:35:00,15.5,4.0,30.02,WNW,293,5.4,13.9,60,0.00,,,0.00,WUHU216HW,2013-03-20 16:35:00,
2013-03-20 11:40:00,15.8,4.0,30.02,NW,315,7.4,10.5,59,0.00,,,0.00,WUHU216HW,2013-03-20 16:40:00,
2013-03-20 11:45:00,16.0,4.2,30.02,West,270,8.3,10.1,59,0.00,,,0.00,WUHU216HW,2013-03-20 16:45:00,
2013-03-20 11:50:00,16.2,4.3,30.02,WNW,293,6.7,11.0,59,0.00,,,0.00,WUHU216HW,2013-03-20 16:50:00,
2013-03-20 11:55:00,16.6,4.7,30.02,NW,315,7.6,11.0,59,0.00,,,0.00,WUHU216HW,2013-03-20 16:55:00,
2013-03-20 12:00:00,16.4,4.1,30.02,WNW,293,12.5,12.5,58,0.00,,,0.00,WUHU216HW,2013-03-20 17:00:00,
2013-03-20 12:05:00,16.6,4.7,30.01,NW,315,8.5,12.5,59,0.00,,,0.00,WUHU216HW,2013-03-20 17:05:00,
2013-03-20 12:10:00,16.2,4.0,30.02,WNW,293,14.3,14.3,58,0.00,,,0.00,WUHU216HW,2013-03-20 17:10:00,
2013-03-20 12:15:00,16.9,4.6,30.01,NNW,338,6.0,14.3,58,0.00,,,0.00,WUHU216HW,2013-03-20 17:15:00,
2013-03-20 12:20:00,17.3,4.6,30.01,WNW,293,10.5,14.3,57,0.00,,,0.00,WUHU216HW,2013-03-20 17:20:00,
2013-03-20 12:25:00,16.9,4.2,30.01,WNW,293,8.5,12.5,57,0.00,,,0.00,WUHU216HW,2013-03-20 17:25:00,
2013-03-20 12:30:00,17.1,4.1,30.01,WNW,293,8.3,13.4,56,0.00,,,0.00,WUHU216HW,2013-03-20 17:30:00,
2013-03-20 12:35:00,17.3,5.0,30.01,WNW,293,7.6,13.4,58,0.00,,,0.00,WUHU216HW,2013-03-20 17:35:00,
2013-03-20 12:40:00,17.6,4.5,30.01,NW,315,9.8,14.3,56,0.00,,,0.00,WUHU216HW,2013-03-20 17:40:00,
2013-03-20 12:45:00,17.8,4.7,30.01,WSW,248,11.0,14.3,56,0.00,,,0.00,WUHU216HW,2013-03-20 17:45:00,
2013-03-20 12:50:00,17.8,4.7,30.01,West,270,10.1,14.8,56,0.00,,,0.00,WUHU216HW,2013-03-20 17:50:00,
2013-03-20 12:55:00,18.5,5.0,30.01,NNW,338,4.5,14.8,55,0.00,,,0.00,WUHU216HW,2013-03-20 17:55:00,
2013-03-20 13:00:00,18.7,5.1,30.01,WSW,248,10.3,10.3,55,0.00,,,0.00,WUHU216HW,2013-03-20 18:00:00,
2013-03-20 13:05:00,18.4,4.8,30.01,WNW,293,8.1,10.7,55,0.00,,,0.00,WUHU216HW,2013-03-20 18:05:00,
2013-03-20 13:10:00,18.7,5.5,30.01,West,270,10.1,11.0,56,0.00,,,0.00,WUHU216HW,2013-03-20 18:10:00,
2013-03-20 13:15:00,18.7,4.7,30.01,WSW,248,7.6,14.1,54,0.00,,,0.00,WUHU216HW,2013-03-20 18:15:00,
2013-03-20 13:20:00,19.3,5.6,30.01,WNW,293,11.0,14.1,55,0.00,,,0.00,WUHU216HW,2013-03-20 18:20:00,
2013-03-20 13:25:00,19.1,5.4,30.01,NW,315,8.5,13.9,55,0.00,,,0.00,WUHU216HW,2013-03-20 18:25:00,
2013-03-20 13:30:00,19.6,6.0,30.01,West,270,7.6,13.9,55,0.00,,,0.00,WUHU216HW,2013-03-20 18:30:00,
2013-03-20 13:35:00,19.8,6.1,30.01,West,270,8.7,14.1,55,0.00,,,0.00,WUHU216HW,2013-03-20 18:35:00,
2013-03-20 13:40:00,20.0,6.3,30.01,WSW,248,5.4,14.1,55,0.00,,,0.00,WUHU216HW,2013-03-20 18:40:00,
2013-03-20 13:45:00,20.0,5.9,30.00,NW,315,6.5,14.1,54,0.00,,,0.00,WUHU216HW,2013-03-20 18:45:00,
2013-03-20 13:50:00,19.8,6.1,30.00,WNW,293,6.9,14.1,55,0.00,,,0.00,WUHU216HW,2013-03-20 18:50:00,
2013-03-20 13:55:00,20.0,6.3,30.00,WSW,248,8.5,11.9,55,0.00,,,0.00,WUHU216HW,2013-03-20 18:55:00,
2013-03-20 14:00:00,20.2,6.0,29.99,West,270,6.3,11.9,54,0.00,,,0.00,WUHU216HW,2013-03-20 19:00:00,
2013-03-20 14:05:00,21.1,6.5,29.99,NW,315,11.0,12.5,53,0.00,,,0.00,WUHU216HW,2013-03-20 19:05:00,
2013-03-20 14:10:00,20.0,5.5,29.99,NW,315,10.5,13.4,53,0.00,,,0.00,WUHU216HW,2013-03-20 19:10:00,
2013-03-20 14:15:00,19.1,5.0,29.99,NW,315,9.2,13.4,54,0.00,,,0.00,WUHU216HW,2013-03-20 19:15:00,
2013-03-20 14:20:00,19.3,5.6,29.99,NW,315,7.6,11.2,55,0.00,,,0.00,WUHU216HW,2013-03-20 19:20:00,
2013-03-20 14:25:00,20.7,6.9,29.99,NW,315,8.5,11.2,55,0.00,,,0.00,WUHU216HW,2013-03-20 19:25:00,
2013-03-20 14:30:00,21.2,7.0,29.99,West,270,6.7,11.0,54,0.00,,,0.00,WUHU216HW,2013-03-20 19:30:00,
2013-03-20 14:35:00,21.1,6.9,29.99,West,270,7.4,10.7,54,0.00,,,0.00,WUHU216HW,2013-03-20 19:35:00,
2013-03-20 14:40:00,20.9,6.8,29.98,NW,315,10.5,11.6,54,0.00,,,0.00,WUHU216HW,2013-03-20 19:40:00,
2013-03-20 14:45:00,20.7,6.9,29.98,NNW,338,6.9,13.0,55,0.00,,,0.00,WUHU216HW,2013-03-20 19:45:00,
2013-03-20 14:50:00,20.3,5.8,29.98,NW,315,12.3,13.0,53,0.00,,,0.00,WUHU216HW,2013-03-20 19:50:00,
2013-03-20 14:55:00,19.8,6.1,29.98,NW,315,8.5,14.3,55,0.00,,,0.00,WUHU216HW,2013-03-20 19:55:00,
2013-03-20 15:00:00,19.8,6.1,29.98,NW,315,8.5,14.3,55,0.00,,,0.00,WUHU216HW,2013-03-20 20:00:00,
2013-03-20 15:05:00,20.3,6.7,29.98,NNW,338,8.1,13.6,55,0.00,,,0.00,WUHU216HW,2013-03-20 20:05:00,
2013-03-20 15:10:00,19.8,5.7,29.98,NW,315,9.4,13.9,54,0.00,,,0.00,WUHU216HW,2013-03-20 20:10:00,
2013-03-20 15:15:00,19.6,5.5,29.98,NW,315,13.2,13.9,54,0.00,,,0.00,WUHU216HW,2013-03-20 20:15:00,
2013-03-20 15:20:00,19.1,5.0,29.98,NW,315,9.8,13.9,54,0.00,,,0.00,WUHU216HW,2013-03-20 20:20:00,
2013-03-20 15:25:00,19.8,6.1,29.98,WNW,293,10.7,13.4,55,0.00,,,0.00,WUHU216HW,2013-03-20 20:25:00,
2013-03-20 15:30:00,20.7,6.6,29.98,NNW,338,12.5,12.5,54,0.00,,,0.00,WUHU216HW,2013-03-20 20:30:00,
2013-03-20 15:35:00,20.9,6.8,29.98,NNW,338,11.0,12.5,54,0.00,,,0.00,WUHU216HW,2013-03-20 20:35:00,
2013-03-20 15:40:00,20.5,6.4,29.98,NW,315,9.8,13.0,54,0.00,,,0.00,WUHU216HW,2013-03-20 20:40:00,
2013-03-20 15:45:00,20.5,5.9,29.98,WNW,293,9.6,13.0,53,0.00,,,0.00,WUHU216HW,2013-03-20 20:45:00,
2013-03-20 15:50:00,20.3,6.2,29.98,NW,315,8.7,11.4,54,0.00,,,0.00,WUHU216HW,2013-03-20 20:50:00,
2013-03-20 15:55:00,20.0,5.9,29.98,WNW,293,8.3,13.9,54,0.00,,,0.00,WUHU216HW,2013-03-20 20:55:00,
2013-03-20 16:00:00,19.1,5.4,29.98,NW,315,9.8,13.9,55,0.00,,,0.00,WUHU216HW,2013-03-20 21:00:00,
2013-03-20 16:05:00,20.2,6.0,29.98,WNW,293,10.3,12.1,54,0.00,,,0.00,WUHU216HW,2013-03-20 21:05:00,
2013-03-20 16:10:00,19.4,5.8,29.98,NW,315,10.3,11.6,55,0.00,,,0.00,WUHU216HW,2013-03-20 21:10:00,
2013-03-20 16:15:00,21.2,6.7,29.98,NW,315,7.6,11.6,53,0.00,,,0.00,WUHU216HW,2013-03-20 21:15:00,
2013-03-20 16:20:00,21.8,6.4,29.98,NW,315,8.5,12.3,51,0.00,,,0.00,WUHU216HW,2013-03-20 21:20:00,
2013-03-20 16:25:00,22.0,6.6,29.98,NW,315,9.6,12.3,51,0.00,,,0.00,WUHU216HW,2013-03-20 21:25:00,
2013-03-20 16:30:00,21.8,6.8,29.98,NW,315,10.5,13.6,52,0.00,,,0.00,WUHU216HW,2013-03-20 21:30:00,
2013-03-20 16:35:00,22.0,6.9,29.98,NW,315,8.7,13.6,52,0.00,,,0.00,WUHU216HW,2013-03-20 21:35:00,
2013-03-20 16:40:00,21.6,6.2,29.98,WNW,293,11.2,12.3,51,0.00,,,0.00,WUHU216HW,2013-03-20 21:40:00,
2013-03-20 16:45:00,21.6,6.6,29.98,NW,315,12.8,13.4,52,0.00,,,0.00,WUHU216HW,2013-03-20 21:45:00,
2013-03-20 16:50:00,20.5,5.9,29.98,NW,315,11.4,13.4,53,0.00,,,0.00,WUHU216HW,2013-03-20 21:50:00,
2013-03-20 16:55:00,20.2,6.5,29.98,NW,315,10.5,12.8,55,0.00,,,0.00,WUHU216HW,2013-03-20 21:55:00,
2013-03-20 17:00:00,20.0,5.9,29.98,NNW,338,9.8,13.0,54,0.00,,,0.00,WUHU216HW,2013-03-20 22:00:00,
2013-03-20 17:05:00,19.8,5.7,29.99,WNW,293,13.0,14.3,54,0.00,,,0.00,WUHU216HW,2013-03-20 22:05:00,
2013-03-20 17:10:00,19.4,5.8,29.99,NNW,338,11.0,14.3,55,0.00,,,0.00,WUHU216HW,2013-03-20 22:10:00,
2013-03-20 17:15:00,19.4,5.8,29.99,NW,315,12.1,13.6,55,0.00,,,0.00,WUHU216HW,2013-03-20 22:15:00,
2013-03-20 17:20:00,19.1,5.4,29.99,NW,315,10.1,13.6,55,0.00,,,0.00,WUHU216HW,2013-03-20 22:20:00,
2013-03-20 17:25:00,19.1,5.9,29.99,WNW,293,11.9,12.8,56,0.00,,,0.00,WUHU216HW,2013-03-20 22:25:00,
2013-03-20 17:30:00,19.3,5.6,29.99,NW,315,10.3,12.8,55,0.00,,,0.00,WUHU216HW,2013-03-20 22:30:00,
2013-03-20 17:35:00,19.4,5.8,29.99,NW,315,10.3,11.9,55,0.00,,,0.00,WUHU216HW,2013-03-20 22:35:00,
2013-03-20 17:40:00,19.4,5.8,29.99,NW,315,11.2,11.9,55,0.00,,,0.00,WUHU216HW,2013-03-20 22:40:00,
2013-03-20 17:45:00,19.3,5.6,29.99,NW,315,11.4,12.1,55,0.00,,,0.00,WUHU216HW,2013-03-20 22:45:00,
2013-03-20 17:50:00,19.1,5.4,29.99,NW,315,6.7,12.1,55,0.00,,,0.00,WUHU216HW,2013-03-20 22:50:00,
2013-03-20 17:55:00,19.3,5.6,29.99,NW,315,6.3,12.1,55,0.00,,,0.00,WUHU216HW,2013-03-20 22:55:00,
2013-03-20 18:00:00,19.1,5.4,29.99,WNW,293,9.2,12.8,55,0.00,,,0.00,WUHU216HW,2013-03-20 23:00:00,
2013-03-20 18:05:00,18.9,5.7,29.99,NNW,338,8.5,12.8,56,0.00,,,0.00,WUHU216HW,2013-03-20 23:05:00,
2013-03-20 18:10:00,18.7,5.5,30.00,NNW,338,8.7,11.0,56,0.00,,,0.00,WUHU216HW,2013-03-20 23:10:00,
2013-03-20 18:15:00,18.7,5.5,30.00,NW,315,4.9,9.8,56,0.00,,,0.00,WUHU216HW,2013-03-20 23:15:00,
2013-03-20 18:20:00,18.7,5.5,30.00,NW,315,6.3,9.2,56,0.00,,,0.00,WUHU216HW,2013-03-20 23:20:00,
2013-03-20 18:25:00,18.7,6.0,30.00,NW,315,6.3,9.4,57,0.00,,,0.00,WUHU216HW,2013-03-20 23:25:00,
2013-03-20 18:30:00,18.7,6.3,30.00,NW,315,6.7,9.4,58,0.00,,,0.00,WUHU216HW,2013-03-20 23:30:00,
2013-03-20 18:35:00,18.4,5.9,30.00,NW,315,7.6,9.8,58,0.00,,,0.00,WUHU216HW,2013-03-20 23:35:00,
2013-03-20 18:40:00,18.4,5.9,30.00,NW,315,7.2,9.8,58,0.00,,,0.00,WUHU216HW,2013-03-20 23:40:00,
2013-03-20 18:45:00,18.4,6.8,30.01,NW,315,6.0,9.2,60,0.00,,,0.00,WUHU216HW,2013-03-20 23:45:00,
2013-03-20 18:50:00,18.2,6.9,30.01,WNW,293,7.2,8.9,61,0.00,,,0.00,WUHU216HW,2013-03-20 23:50:00,
2013-03-20 18:55:00,18.2,6.6,30.01,NW,315,9.8,10.3,60,0.00,,,0.00,WUHU216HW,2013-03-20 23:55:00,
2013-03-20 19:00:00,18.0,6.8,30.00,NW,315,7.6,10.3,61,0.00,,,0.00,WUHU216HW,2013-03-21 00:00:00,
2013-03-20 19:05:00,17.8,6.7,30.01,NW,315,5.1,9.6,61,0.00,,,0.00,WUHU216HW,2013-03-21 00:05:00,
2013-03-20 19:10:00,17.6,6.5,30.00,NW,315,4.0,8.5,61,0.00,,,0.00,WUHU216HW,2013-03-21 00:10:00,
2013-03-20 19:15:00,17.5,6.3,30.01,NW,315,9.2,12.1,61,0.00,,,0.00,WUHU216HW,2013-03-21 00:15:00,
2013-03-20 19:20:00,17.3,6.1,30.00,NW,315,8.5,12.1,61,0.00,,,0.00,WUHU216HW,2013-03-21 00:20:00,
2013-03-20 19:25:00,16.9,5.8,30.01,NW,315,8.5,10.3,61,0.00,,,0.00,WUHU216HW,2013-03-21 00:25:00,
2013-03-20 19:30:00,16.7,5.6,30.00,NW,315,8.3,9.2,61,0.00,,,0.00,WUHU216HW,2013-03-21 00:30:00,
2013-03-20 19:35:00,16.6,5.4,30.00,NNW,338,8.5,11.6,61,0.00,,,0.00,WUHU216HW,2013-03-21 00:35:00,
2013-03-20 19:40:00,16.2,5.1,30.01,NW,315,7.2,11.6,61,0.00,,,0.00,WUHU216HW,2013-03-21 00:40:00,
2013-03-20 19:45:00,16.0,5.2,30.01,NW,315,6.3,9.4,62,0.00,,,0.00,WUHU216HW,2013-03-21 00:45:00,
2013-03-20 19:50:00,16.0,5.2,30.01,NW,315,7.2,7.8,62,0.00,,,0.00,WUHU216HW,2013-03-21 00:50:00,
2013-03-20 19:55:00,15.8,5.1,30.01,NW,315,7.6,8.7,62,0.00,,,0.00,WUHU216HW,2013-03-21 00:55:00,
2013-03-20 20:00:00,15.7,4.9,30.01,NW,315,8.3,8.7,62,0.00,,,0.00,WUHU216HW,2013-03-21 01:00:00,
2013-03-20 20:05:00,15.7,4.9,30.01,NW,315,5.8,8.5,62,0.00,,,0.00,WUHU216HW,2013-03-21 01:05:00,
2013-03-20 20:10:00,15.5,5.1,30.01,NW,315,5.6,8.3,63,0.00,,,0.00,WUHU216HW,2013-03-21 01:10:00,
2013-03-20 20:15:00,15.1,5.0,30.01,NW,315,4.0,6.7,64,0.00,,,0.00,WUHU216HW,2013-03-21 01:15:00,
2013-03-20 20:20:00,14.8,4.7,30.01,NW,315,4.7,7.2,64,0.00,,,0.00,WUHU216HW,2013-03-21 01:20:00,
2013-03-20 20:25:00,14.8,4.7,30.01,NW,315,4.5,7.2,64,0.00,,,0.00,WUHU216HW,2013-03-21 01:25:00,
2013-03-20 20:30:00,14.8,4.4,30.01,NW,315,6.0,7.4,63,0.00,,,0.00,WUHU216HW,2013-03-21 01:30:00,
2013-03-20 20:35:00,14.9,4.5,30.01,NW,315,4.9,7.4,63,0.00,,,0.00,WUHU216HW,2013-03-21 01:35:00,
2013-03-20 20:40:00,14.8,4.4,30.02,NW,315,5.1,6.7,63,0.00,,,0.00,WUHU216HW,2013-03-21 01:40:00,
2013-03-20 20:45:00,14.6,4.2,30.01,NW,315,4.3,6.3,63,0.00,,,0.00,WUHU216HW,2013-03-21 01:45:00,
2013-03-20 20:50:00,14.4,4.4,30.01,NW,315,4.0,6.3,64,0.00,,,0.00,WUHU216HW,2013-03-21 01:50:00,
2013-03-20 20:55:00,14.2,4.2,30.01,NW,315,4.7,6.9,64,0.00,,,0.00,WUHU216HW,2013-03-21 01:55:00,
2013-03-20 21:00:00,14.0,4.1,30.01,NW,315,6.3,8.9,64,0.00,,,0.00,WUHU216HW,2013-03-21 02:00:00,
2013-03-20 21:05:00,14.0,4.1,30.01,NW,315,4.9,8.9,64,0.00,,,0.00,WUHU216HW,2013-03-21 02:05:00,
2013-03-20 21:10:00,13.9,3.9,30.01,NW,315,4.5,7.6,64,0.00,,,0.00,WUHU216HW,2013-03-21 02:10:00,
2013-03-20 21:15:00,14.0,4.1,30.02,NNW,338,4.3,7.6,64,0.00,,,0.00,WUHU216HW,2013-03-21 02:15:00,
2013-03-20 21:20:00,14.0,3.7,30.02,NW,315,5.4,7.2,63,0.00,,,0.00,WUHU216HW,2013-03-21 02:20:00,
2013-03-20 21:25:00,13.9,3.9,30.02,NW,315,4.7,6.5,64,0.00,,,0.00,WUHU216HW,2013-03-21 02:25:00,
2013-03-20 21:30:00,13.7,3.7,30.02,WNW,293,3.8,6.5,64,0.00,,,0.00,WUHU216HW,2013-03-21 02:30:00,
2013-03-20 21:35:00,13.5,3.5,30.02,NW,315,4.7,7.2,64,0.00,,,0.00,WUHU216HW,2013-03-21 02:35:00,
2013-03-20 21:40:00,13.3,3.3,30.02,NW,315,2.9,7.2,64,0.00,,,0.00,WUHU216HW,2013-03-21 02:40:00,
2013-03-20 21:45:00,13.1,3.5,30.02,NW,315,4.3,4.9,65,0.00,,,0.00,WUHU216HW,2013-03-21 02:45:00,
2013-03-20 21:50:00,13.0,3.3,30.02,NW,315,2.9,5.6,65,0.00,,,0.00,WUHU216HW,2013-03-21 02:50:00,
2013-03-20 21:55:00,12.6,3.0,30.02,NW,315,3.1,5.6,65,0.00,,,0.00,WUHU216HW,2013-03-21 02:55:00,
2013-03-20 22:00:00,12.4,2.8,30.02,NW,315,2.0,3.6,65,0.00,,,0.00,WUHU216HW,2013-03-21 03:00:00,
2013-03-20 22:05:00,12.1,2.4,30.02,NW,315,1.8,3.1,65,0.00,,,0.00,WUHU216HW,2013-03-21 03:05:00,
2013-03-20 22:10:00,11.5,1.6,30.03,NW,315,2.2,2.9,64,0.00,,,0.00,WUHU216HW,2013-03-21 03:10:00,
2013-03-20 22:15:00,11.3,2.1,30.02,NW,315,1.8,2.9,66,0.00,,,0.00,WUHU216HW,2013-03-21 03:15:00,
2013-03-20 22:20:00,11.2,1.9,30.03,NW,315,3.1,3.4,66,0.00,,,0.00,WUHU216HW,2013-03-21 03:20:00,
2013-03-20 22:25:00,11.2,2.3,30.03,NW,315,2.5,3.4,67,0.00,,,0.00,WUHU216HW,2013-03-21 03:25:00,
2013-03-20 22:30:00,11.3,2.4,30.03,NW,315,2.5,3.4,67,0.00,,,0.00,WUHU216HW,2013-03-21 03:30:00,
2013-03-20 22:35:00,11.2,2.3,30.03,NNW,338,2.2,3.4,67,0.00,,,0.00,WUHU216HW,2013-03-21 03:35:00,
2013-03-20 22:40:00,11.0,2.1,30.03,NW,315,2.5,2.7,67,0.00,,,0.00,WUHU216HW,2013-03-21 03:40:00,
2013-03-20 22:45:00,11.0,2.4,30.03,NNW,338,3.1,3.1,68,0.00,,,0.00,WUHU216HW,2013-03-21 03:45:00,
2013-03-20 22:50:00,11.2,2.6,30.02,NNW,338,2.2,3.4,68,0.00,,,0.00,WUHU216HW,2013-03-21 03:50:00,
2013-03-20 22:55:00,11.2,2.3,30.02,NW,315,2.5,3.4,67,0.00,,,0.00,WUHU216HW,2013-03-21 03:55:00,
2013-03-20 23:00:00,11.0,2.1,30.02,NW,315,1.8,3.4,67,0.00,,,0.00,WUHU216HW,2013-03-21 04:00:00,
2013-03-20 23:05:00,10.6,1.7,30.02,NW,315,1.1,3.1,67,0.00,,,0.00,WUHU216HW,2013-03-21 04:05:00,
2013-03-20 23:10:00,10.6,1.7,30.02,NW,315,1.6,1.8,67,0.00,,,0.00,WUHU216HW,2013-03-21 04:10:00,
2013-03-20 23:15:00,10.8,2.3,30.02,NW,315,1.8,2.2,68,0.00,,,0.00,WUHU216HW,2013-03-21 04:15:00,
2013-03-20 23:20:00,11.0,2.4,30.02,NW,315,1.8,2.7,68,0.00,,,0.00,WUHU216HW,2013-03-21 04:20:00,
2013-03-20 23:25:00,11.2,2.3,30.02,West,270,4.0,4.7,67,0.00,,,0.00,WUHU216HW,2013-03-21 04:25:00,
2013-03-20 23:30:00,11.5,2.3,30.02,WNW,293,2.2,4.7,66,0.00,,,0.00,WUHU216HW,2013-03-21 04:30:00,
2013-03-20 23:35:00,11.7,2.1,30.02,NW,315,1.8,4.0,65,0.00,,,0.00,WUHU216HW,2013-03-21 04:35:00,
2013-03-20 23:40:00,11.3,1.8,30.02,NW,315,1.6,2.7,65,0.00,,,0.00,WUHU216HW,2013-03-21 04:40:00,
2013-03-20 23:45:00,11.2,1.6,30.02,NW,315,1.8,2.7,65,0.00,,,0.00,WUHU216HW,2013-03-21 04:45:00,
2013-03-20 23:50:00,11.3,1.8,30.02,WNW,293,3.4,4.0,65,0.00,,,0.00,WUHU216HW,2013-03-21 04:50:00,
2013-03-20 23:55:00,11.3,1.8,30.02,NW,315,1.8,4.0,65,0.00,,,0.00,WUHU216HW,2013-03-21 04:55:00,